Location: Rancho Del Sol Observatory
(38.7214°N, 120.6350°W)
Time: 14:52:48
(UTC-08:00)

Tiros 1 despin weight - Visible Passes

Search period start: 17 January 2020 00:00
Search period end: 27 January 2020 00:00
Orbit: 593 x 643 km, 48.2° (Epoch: 17 January)

Date Brightness Start Highest point End Pass type
(mag) Time Alt. Az. Time Alt. Az. Time Alt. Az.
17 Jan ? 17:41:32 10° NW 17:45:31 27° N 17:49:24 11° ENE visible
17 Jan ? 19:23:07 10° NW 19:26:29 43° NNW 19:26:29 43° NNW visible
18 Jan ? 17:58:11 10° NW 18:02:25 33° NNE 18:05:37 16° ENE visible
18 Jan ? 19:39:40 10° WNW 19:42:42 40° WNW 19:42:42 40° WNW visible
19 Jan ? 18:14:43 10° NW 18:19:14 46° NNE 18:21:59 22° E visible
19 Jan ? 19:56:23 10° WNW 19:59:05 30° W 19:59:05 30° W visible
20 Jan ? 18:31:13 10° NW 18:35:54 74° NNE 18:38:31 26° ESE visible
20 Jan ? 20:13:31 10° W 20:15:38 19° WSW 20:15:38 19° WSW visible
21 Jan ? 18:47:49 10° WNW 18:52:27 62° SW 18:55:18 23° SE visible
21 Jan ? 20:32:21 10° WSW 20:32:25 10° WSW 20:32:25 10° WSW visible
22 Jan ? 19:04:40 10° WNW 19:08:50 32° SW 19:12:23 13° SSE visible
23 Jan ? 17:39:20 10° WNW 17:44:01 88° SW 17:48:43 10° SE visible
23 Jan ? 19:22:09 10° W 19:25:05 17° SW 19:28:02 10° S visible
24 Jan ? 17:56:01 10° WNW 18:00:30 47° SW 18:04:59 10° SE visible
25 Jan ? 18:13:03 10° W 18:16:50 25° SW 18:20:37 10° S visible
26 Jan ? 18:31:15 10° WSW 18:33:02 12° SW 18:34:49 10° SSW visible
